Meteo pe oră la

Astăzi, 2 Martie, Marţi

Timp Temperatura Precipitaţii Vânt Presiune Umiditate
00:00 +22°C° 0 mm 1 m/s 759 mmHg 95%
01:00 +22°C° 0 mm 1 m/s 759 mmHg 96%
02:00 +22°C° 0 mm 1 m/s 758 mmHg 97%
03:00 +22°C° 0 mm 1 m/s 758 mmHg 98%
04:00 +22°C° 0 mm 1 m/s 758 mmHg 98%
05:00 +22°C° 0 mm 1 m/s 759 mmHg 98%
06:00 +22°C° 0 mm 1 m/s 759 mmHg 98%
07:00 +24°C° 0 mm 2 m/s 759 mmHg 86%
08:00 +27°C° 0 mm 2 m/s 760 mmHg 74%
09:00 +30°C° 0 mm 2 m/s 760 mmHg 61%
10:00 +32°C° 0 mm 2 m/s 760 mmHg 52%
11:00 +35°C° 0 mm 2 m/s 759 mmHg 43%
12:00 +37°C° 0 mm 2 m/s 759 mmHg 35%
13:00 +36°C° 0 mm 2 m/s 758 mmHg 36%
14:00 +36°C° 0 mm 2 m/s 758 mmHg 37%
15:00 +36°C° 0 mm 3 m/s 757 mmHg 38%
16:00 +34°C° 0 mm 2 m/s 757 mmHg 42%
17:00 +32°C° 0 mm 2 m/s 757 mmHg 47%
18:00 +30°C° 0 mm 2 m/s 757 mmHg 52%
19:00 +29°C° 0 mm 2 m/s 758 mmHg 60%
20:00 +27°C° 0 mm 2 m/s 759 mmHg 68%
21:00 +26°C° 0 mm 2 m/s 759 mmHg 76%
22:00 +25°C° 0 mm 1 m/s 759 mmHg 80%
23:00 +24°C° 0 mm 1 m/s 759 mmHg 87%

Mâine, 3 Martie, Miercuri

Timp Temperatura Precipitaţii Vânt Presiune Umiditate
00:00 +23°C° 0 mm 1 m/s 759 mmHg 94%
01:00 +22°C° 0 mm 1 m/s 759 mmHg 95%
02:00 +20°C° 0 mm 0 m/s 758 mmHg 96%
03:00 +20°C° 0 mm 0 m/s 758 mmHg 97%
04:00 +20°C° 0 mm 0 m/s 758 mmHg 97%
05:00 +20°C° 0 mm 0 m/s 759 mmHg 97%
06:00 +19°C° 0 mm 0 m/s 759 mmHg 97%
07:00 +24°C° 0 mm 1 m/s 759 mmHg 85%
08:00 +27°C° 0 mm 1 m/s 760 mmHg 73%
09:00 +29°C° 0 mm 2 m/s 760 mmHg 61%
10:00 +32°C° 0 mm 1 m/s 760 mmHg 51%
11:00 +35°C° 0 mm 1 m/s 759 mmHg 40%
12:00 +36°C° 0 mm 0 m/s 759 mmHg 29%
13:00 +39°C° 0 mm 1 m/s 758 mmHg 28%
14:00 +37°C° 0 mm 1 m/s 758 mmHg 28%
15:00 +37°C° 0 mm 1 m/s 757 mmHg 27%
16:00 +35°C° 0 mm 1 m/s 758 mmHg 35%
17:00 +32°C° 0 mm 2 m/s 758 mmHg 44%
18:00 +30°C° 0 mm 3 m/s 758 mmHg 52%
19:00 +28°C° 0 mm 2 m/s 759 mmHg 59%
20:00 +27°C° 0 mm 2 m/s 759 mmHg 67%
21:00 +25°C° 0 mm 1 m/s 760 mmHg 74%
22:00 +24°C° 0 mm 1 m/s 760 mmHg 77%
23:00 +23°C° 0 mm 1 m/s 760 mmHg 81%

Poimâine, 4 Martie, Joi

Timp Temperatura Precipitaţii Vânt Presiune Umiditate
00:00 +23°C° 0 mm 1 m/s 760 mmHg 84%
01:00 +20°C° 0 mm 0 m/s 760 mmHg 85%
02:00 +20°C° 0 mm 0 m/s 760 mmHg 87%
03:00 +20°C° 0 mm 0 m/s 760 mmHg 88%
04:00 +20°C° 0 mm 0 m/s 760 mmHg 89%
05:00 +19°C° 0 mm 0 m/s 760 mmHg 91%
06:00 +19°C° 0 mm 0 m/s 760 mmHg 92%
07:00 +22°C° 0 mm 0 m/s 760 mmHg 79%
08:00 +26°C° 0 mm 0 m/s 761 mmHg 67%
09:00 +31°C° 0 mm 1 m/s 761 mmHg 54%
10:00 +31°C° 0 mm 0 m/s 761 mmHg 47%
11:00 +33°C° 0 mm 0 m/s 760 mmHg 40%
12:00 +36°C° 0 mm 0 m/s 759 mmHg 33%
13:00 +36°C° 0 mm 1 m/s 759 mmHg 38%
14:00 +35°C° 0 mm 2 m/s 758 mmHg 43%
15:00 +33°C° 0 mm 3 m/s 758 mmHg 48%
16:00 +30°C° 0.1 mm 3 m/s 758 mmHg 57%
17:00 +28°C° 0.1 mm 3 m/s 758 mmHg 67%
18:00 +26°C° 0.1 mm 3 m/s 758 mmHg 76%
19:00 +26°C° 0 mm 2 m/s 759 mmHg 81%
20:00 +25°C° 0 mm 2 m/s 759 mmHg 87%
21:00 +24°C° 0 mm 2 m/s 760 mmHg 92%
22:00 +24°C° 0 mm 2 m/s 759 mmHg 90%
23:00 +24°C° 0 mm 1 m/s 759 mmHg 87%

5 Martie, Vineri

Timp Temperatura Precipitaţii Vânt Presiune Umiditate
00:00 +24°C° 0 mm 1 m/s 759 mmHg 85%
01:00 +24°C° 0 mm 1 m/s 758 mmHg 85%
02:00 +24°C° 0 mm 1 m/s 758 mmHg 85%
03:00 +24°C° 0 mm 1 m/s 758 mmHg 85%
04:00 +24°C° 0 mm 1 m/s 758 mmHg 84%
05:00 +22°C° 0 mm 0 m/s 758 mmHg 83%
06:00 +22°C° 0 mm 0 m/s 758 mmHg 82%
07:00 +23°C° 0 mm 0 m/s 758 mmHg 78%
08:00 +24°C° 0 mm 0 m/s 758 mmHg 73%
09:00 +27°C° 0 mm 1 m/s 759 mmHg 69%
10:00 +29°C° 0 mm 1 m/s 758 mmHg 63%
11:00 +28°C° 0 mm 0 m/s 757 mmHg 57%
12:00 +30°C° 0 mm 0 m/s 757 mmHg 51%
13:00 +31°C° 0 mm 0 m/s 756 mmHg 49%
14:00 +31°C° 0 mm 0 m/s 756 mmHg 47%
15:00 +32°C° 0 mm 0 m/s 755 mmHg 45%
16:00 +32°C° 0 mm 1 m/s 755 mmHg 50%
17:00 +30°C° 0 mm 2 m/s 755 mmHg 55%
18:00 +29°C° 0 mm 3 m/s 755 mmHg 60%
19:00 +27°C° 0 mm 2 m/s 756 mmHg 68%
20:00 +25°C° 0 mm 2 m/s 756 mmHg 75%
21:00 +24°C° 0 mm 2 m/s 757 mmHg 82%
22:00 +23°C° 0 mm 2 m/s 757 mmHg 87%
23:00 +23°C° 0 mm 1 m/s 756 mmHg 91%

6 Martie, Sâmbătă

Timp Temperatura Precipitaţii Vânt Presiune Umiditate
00:00 +22°C° 0 mm 1 m/s 756 mmHg 95%
01:00 +22°C° 0 mm 1 m/s 756 mmHg 95%
02:00 +22°C° 0 mm 1 m/s 756 mmHg 96%
03:00 +22°C° 0 mm 1 m/s 756 mmHg 96%
04:00 +20°C° 0 mm 0 m/s 756 mmHg 96%
05:00 +20°C° 0 mm 0 m/s 756 mmHg 96%
06:00 +20°C° 0 mm 0 m/s 757 mmHg 96%
07:00 +21°C° 0 mm 0 m/s 757 mmHg 90%
08:00 +22°C° 0 mm 0 m/s 757 mmHg 85%
09:00 +24°C° 0 mm 0 m/s 758 mmHg 80%
10:00 +26°C° 0.1 mm 1 m/s 758 mmHg 76%
11:00 +27°C° 0.1 mm 1 m/s 757 mmHg 72%
12:00 +28°C° 0.1 mm 2 m/s 757 mmHg 68%
13:00 +28°C° 0.1 mm 3 m/s 757 mmHg 67%
14:00 +28°C° 0.1 mm 3 m/s 756 mmHg 66%
15:00 +29°C° 0.1 mm 4 m/s 756 mmHg 65%
16:00 +27°C° 0 mm 3 m/s 756 mmHg 68%
17:00 +26°C° 0 mm 3 m/s 757 mmHg 70%
18:00 +25°C° 0 mm 3 m/s 757 mmHg 73%
19:00 +24°C° 0 mm 2 m/s 758 mmHg 76%
20:00 +23°C° 0 mm 2 m/s 758 mmHg 80%
21:00 +22°C° 0 mm 1 m/s 759 mmHg 83%
22:00 +21°C° 0 mm 1 m/s 759 mmHg 86%
23:00 +21°C° 0 mm 1 m/s 759 mmHg 88%

7 Martie, Duminică

Timp Temperatura Precipitaţii Vânt Presiune Umiditate
00:00 +20°C° 0 mm 1 m/s 759 mmHg 91%
01:00 +20°C° 0 mm 1 m/s 759 mmHg 92%
02:00 +20°C° 0 mm 1 m/s 758 mmHg 93%
03:00 +19°C° 0 mm 1 m/s 758 mmHg 94%
04:00 +19°C° 0 mm 1 m/s 758 mmHg 94%
05:00 +17°C° 0 mm 0 m/s 759 mmHg 94%
06:00 +17°C° 0 mm 0 m/s 759 mmHg 94%
07:00 +22°C° 0 mm 1 m/s 759 mmHg 81%
08:00 +24°C° 0 mm 1 m/s 760 mmHg 67%
09:00 +27°C° 0 mm 2 m/s 761 mmHg 54%
10:00 +28°C° 0 mm 1 m/s 760 mmHg 48%
11:00 +30°C° 0 mm 1 m/s 760 mmHg 43%
12:00 +31°C° 0 mm 1 m/s 760 mmHg 37%
13:00 +32°C° 0 mm 2 m/s 759 mmHg 35%
14:00 +32°C° 0 mm 2 m/s 758 mmHg 33%
15:00 +34°C° 0 mm 2 m/s 758 mmHg 31%
16:00 +31°C° 0 mm 3 m/s 758 mmHg 39%
17:00 +28°C° 0 mm 3 m/s 759 mmHg 48%
18:00 +26°C° 0 mm 3 m/s 759 mmHg 56%
19:00 +24°C° 0 mm 3 m/s 760 mmHg 62%
20:00 +23°C° 0 mm 2 m/s 760 mmHg 69%
21:00 +21°C° 0 mm 1 m/s 761 mmHg 75%
22:00 +21°C° 0 mm 1 m/s 761 mmHg 81%
23:00 +20°C° 0 mm 1 m/s 761 mmHg 87%
Arată mai mult

Formular de consimțământ

Meteoprog și furnizorii noștri de servicii pot stoca și accesa date personale, precum cookies, identificatori de dispozitiv sau alte tehnologii similare pe dispozitivul dumneavoastră și procesa astfel de date pentru a personaliza conținutul și reclamele, dar și pentru a oferi caracteristici de social media și pentru a analiza traficul.

  • Stocarea și/sau accesarea informațiilor pe dispozitivul dumneavoastră

    Cookies, identificatori de dispozitiv sau alte informații pot fi stocate sau accesate pe dispozitiv în scopurile indicate mai sus.

  • Reclame și conținut personalizat, evaluarea reclamelor și a conținutului, informații despre audiențe și dezvoltarea produselor

    Reclamele și conținutul pot fi personalizate pe baza unui profil. Pot fi adăugate date suplimentare pentru a personaliza mai bine reclamele și conținutul. Performanța reclamelor și conținutului poate fi măsurată. Pot fi obținute informații despre utilizatorii care au văzut reclamele și conținutul. Aceste date pot fi utilizate pentru a dezvolta sau îmbunătăți experiența utilizatorilor, sistemele și software-ul.

Dând clic pe ‘Sunt de acord’, permiteți utilizarea cookie-urilor menționate, a identificatorilor de dispozitiv, balizelor web sau altor tehnologii similare. Setările pot fi modificate din browser-ul dispozitivului dumneavoastră.

În anumite scopuri, interesele legitime pot prima asupra consimțământului. Puteți citi mai multe informații în acest sens în Politica privind Confidențialitatea Datelor și Cookie.